Regional Weather Roundup
Issued by NWS Lake Charles, LA

Home | Current Version | Previous Version | Text Only | Print | Product List | Glossary On
Versions: 1 2 3 4 5 6 7 8 9 10 11 12 13 14 15 16 17 18 19 20 21 22 23 24 25 26 27 28 29 30 31 32 33 34 35 36 37 38 39 40 41 42 43 44 45 46 47 48 49 50
000
ASUS44 KLCH 230310
RWRLCH
RWRLCH
REGIONAL WEATHER ROUNDUP
NATIONAL WEATHER SERVICE LAKE CHARLES LA
900 PM CST MON DEC 22 2014

Note: "fair" indicates few or no clouds below 12,000 feet with no
significant weather and/or obstructions to visibility.


ACROSS SOUTHEAST TEXAS

CITY           SKY/WX    TMP DP  RH WIND       PRES   REMARKS
BEAUMONT       MOCLDY    63  61  93 S7        29.66S
BEAUMONT CITY    N/A     62  60  93 SW8       29.66S
ORANGE         CLOUDY    64  63  94 S9        29.68F
JASPER         MOCLDY    56  55  97 CALM      29.69R
$$

ACROSS CENTRAL LOUISIANA

CITY           SKY/WX    TMP DP  RH WIND       PRES   REMARKS
LEESVILLE      CLOUDY    64  62  92 SW8       29.66R
FULLERTON      CLOUDY    68  62  81 VRB5      29.65R
ALEXANDRIA INT MOCLDY    64  61  90 S8        29.65R
ESLER FIELD    CLOUDY    65  61  87 SW7       29.66R
DERIDDER       CLOUDY    64  62  93 S6        29.70R
OAKDALE        CLOUDY    67  62  85 SW8       29.68R
OPELOUSAS      CLOUDY    67  65  93 SW7       29.69R
$$

ACROSS SOUTHWEST AND SOUTH CENTRAL LOUISIANA

CITY           SKY/WX    TMP DP  RH WIND       PRES   REMARKS
SULPHUR        CLOUDY    66  65  96 SW9G16    29.68S
LAKE CHARLES   CLOUDY    65  63  93 SW8       29.68
CHENNAULT INT  CLOUDY    65  64  94 SW10G18   29.68S
CAMERON PHI    CLOUDY    64  64 100 W6        29.71S FOG
DEQUINCY       CLOUDY    64  63  99 SW3       29.67S
JENNINGS       CLOUDY    64  64  99 SW3       29.69R
LAFAYETTE      CLOUDY    66  65  96 S8        29.70R FOG
NEW IBERIA     CLOUDY    66  65  96 S6        29.71S FOG
ABBEVILLE      FOG       64  64 100 S7        29.70S VSB 1
PATTERSON      MOCLDY    66  64  94 S7        29.74R
SALT POINT       N/A     67  64  90 VRB5      29.71S
$$

SELECTED SITES ACROSS THE REGION

CITY           SKY/WX    TMP DP  RH WIND       PRES   REMARKS
HOUSTON BUSH   PTCLDY    62  59  90 CALM      29.66R
HOUSTON HOBBY  PTCLDY    60  58  92 S7        29.65S
GALVESTON      PTCLDY    61  61 100 CALM      29.68R
COLLEGE STAT   CLOUDY    61  54  77 NW6       29.68R
CONROE         MOCLDY    55  54  96 CALM      29.67R
HUNTSVILLE     CLOUDY    62  55  77 W5        29.66R
LUFKIN         CLOUDY    59  53  80 CALM      29.65R
SHREVEPORT     CLOUDY    58  54  86 SW3       29.64R
MONROE         CLOUDY    58  58 100 SW3       29.66R
NATCHEZ MS     CLOUDY    66  61  82 SW9G18    29.68S
BATON ROUGE    CLOUDY    69  65  86 SW14      29.70S
N.O. INTL ARPT CLOUDY    69  66  90 S12       29.74S FOG
SLIDELL        CLOUDY    69  66  90 S5        29.74R
$$

MARINE REPORTS

STATION/POSITION TIME  TEMP    WIND        PRES    VSBY  WAVE
                       AIR SEA DIR/SP/G                  HT/PER
                 (UTC) (F)     (DEG/KT/KT) (MB)    (MI)  (FT/S)
BUOY 30 S HIGH I 0300   64 64  220/  8/  8 1004.1R         3/ 4
SEA RIM ST PARK  0300   62     250/  7/  8 1005.5R
PORT ARTHUR      0300      60  240/  9/ 11 1004.7F
SABINE PASS N    0300   63 60  240/  6/ 11 1004.6S
TEXAS POINT      NOT AVBL
CALCASIEU PASS   0300   63 61  290/  5/  8   N/A
LK CHARLES BEACH 0300   65 60              1004.9F
MARSH ISLAND     NOT AVBL
FRESH WATER LOCK 0300   64 61  160/  8/ 10 1005.6S
AMERADA PASS     0300   66 55  180/  4/  7 1006.6R
$$


USA.gov is the U.S. government's official web portal to all federal, state and local government web resources and services.